{"data":{"norad_id":68265,"epoch":"2026-05-24T19:03:39.439872Z","epoch_age_seconds":82899,"freshness":"FRESH","line1":"1 68265U 26055D   26144.79420648  .00016917  00000+0  58195-3 0  9996","line2":"2 68265  53.1581 326.4285 0000851  79.0816 281.0281 15.30202623 11577","mean_motion":15.30202623,"eccentricity":8.51e-5,"inclination_deg":53.1581,"raan_deg":326.4285,"arg_perigee_deg":79.0816,"mean_anomaly_deg":281.0281,"bstar":0.00058195,"rev_number":1157,"period_min":94.10518439557,"perigee_km":474.62401803069,"apogee_km":475.79045721993,"semimajor_km":6853.3442376253,"source":"CELESTRAK","updated_at":"2026-05-25T13:38:21.890470Z"}}